sat.trackr.live / text

‹ back to catalog

STARLINK-11458 [DTC]

NORAD 62982 · 2025-031B

PAYLOAD ACTIVE UNKNOWN

§ Identity

Operator
Country
US
Launch date
2025-02-11
Launch site
AFETR
Launch vehicle
Mass (kg)
RCS (m²)

Purposes: comms

External: N2YO · Heavens-Above · Gunter

§ Orbital elements

Epoch: 2026-05-24T17:37:46.874784Z

Period
91.66 min
Inclination
42.9986°
Eccentricity
0.0000750
Mean motion
15.70967229 rev/d
Perigee alt
355.6 km
Apogee alt
356.6 km
Semi-major
6,734.3 km
B*
1.6633e-3
RAAN
262.9657°
Arg perigee
305.1719°
Mean anomaly
54.9078°
Rev number
7,470

§ Raw data

STARLINK-11458 [DTC]1 62982U 25031B   26144.73457031  .00219898  00000+0  16633-2 0  99922 62982  42.9986 262.9657 0000750 305.1719  54.9078 15.70967229 74701

JSON: /api/v1/satellites/62982 · /tle

For live sub-satellite position, see the globe view (requires WebGL).

§ Visibility from observer

Set your observer location to see the next 7 days of passes ≥ 10°. The values pass through the URL so the page stays shareable.

No JS? Fill the form by hand. The geolocation button needs JavaScript.